Theta_e
326 327 320 324 328 327 332 333 330 327 327 328 328 328 331 332 332 335 339 340 338 346 347 344 337 339 339 347 348 348 345 345 345 344 343 342 340 336 336 335 338 338 335 332 327 323 320 318 315
325 326 323 325 327 331 331 332 328 329 327 327 327 327 326 329 332 336 340 341 337 347 348 346 336 338 338 346 349 348 346 347 347 346 345 343 337 334 334 333 333 332 330 326 322 318 316 313 311
327 324 326 327 326 329 332 328 328 328 325 325 326 327 329 331 335 337 340 343 339 346 349 347 337 338 337 344 349 348 347 348 348 347 346 341 334 330 331 330 330 326 323 320 318 315 313 313 315
327 328 325 327 328 329 328 328 326 326 325 325 326 328 329 332 333 336 341 344 342 344 348 349 338 336 337 338 347 349 348 348 349 348 345 338 331 328 328 326 326 321 318 316 315 314 315 317 319
326 329 330 329 328 328 326 324 327 326 326 325 325 327 331 332 332 337 343 344 344 342 345 351 340 334 337 336 344 347 349 349 349 348 343 334 331 329 327 325 323 319 317 316 315 316 318 319 321
330 329 331 332 329 328 325 324 323 328 326 325 325 327 331 332 330 336 344 344 343 341 344 355 341 336 337 335 338 345 348 349 350 348 343 335 330 330 327 325 322 317 316 317 318 318 319 320 322
328 331 330 329 330 330 327 324 323 324 327 327 327 329 332 332 328 334 343 343 342 340 343 355 348 344 338 337 336 342 347 349 350 348 343 337 332 329 326 325 322 318 318 321 322 320 319 320 321
326 329 330 329 330 330 329 327 326 324 326 328 328 329 332 330 327 331 339 342 341 339 342 352 348 347 347 346 338 338 346 349 348 344 339 335 332 329 327 326 325 320 318 319 318 318 318 320 321
323 326 328 329 328 329 329 329 327 327 327 329 328 328 330 327 327 329 334 342 340 339 341 347 346 345 345 344 346 336 337 339 339 338 333 332 339 338 340 333 336 324 319 319 319 320 318 319 321
323 324 324 325 327 328 327 329 329 328 327 327 328 328 328 327 327 328 330 336 340 340 340 342 345 344 344 342 344 345 344 343 343 342 344 341 339 339 340 339 334 335 327 321 320 322 322 325 328
322 323 323 323 324 326 327 327 329 329 329 326 327 328 327 326 327 327 327 332 341 340 341 340 345 345 344 341 342 344 341 342 343 343 343 344 340 339 342 341 342 341 338 335 333 334 334 332 331
321 322 323 323 323 323 325 326 328 329 329 328 325 327 326 326 327 326 326 328 332 340 338 339 344 345 345 342 341 342 339 342 342 343 346 347 344 342 343 343 342 344 340 340 336 338 337 337 335
319 320 321 321 321 322 323 325 327 328 328 327 326 324 326 326 324 324 325 327 330 333 340 337 340 346 348 348 342 341 342 341 341 343 346 347 346 344 346 345 342 340 341 339 341 338 337 337 337
317 317 318 319 320 319 321 322 323 325 326 326 323 324 325 328 323 322 323 326 330 333 336 340 339 341 346 349 350 345 346 341 342 343 345 348 347 346 345 345 342 340 338 337 337 337 337 337 337
316 316 317 317 318 319 319 319 319 320 321 323 323 323 325 328 326 322 322 324 327 329 332 335 340 339 346 349 348 348 345 345 343 343 344 347 348 346 345 343 342 341 339 338 338 338 337 337 337
316 316 316 317 317 317 317 318 319 320 320 321 321 322 323 327 328 323 321 322 325 328 329 332 339 341 344 345 346 346 343 342 341 342 342 344 348 346 346 343 341 340 338 338 337 337 338 337 338
316 315 316 316 317 318 318 318 318 319 320 320 320 321 322 325 327 322 321 321 323 325 328 329 336 340 345 345 345 344 342 339 338 338 338 340 344 347 345 343 339 339 339 336 334 336 336 339 339
316 317 316 316 317 317 317 317 318 319 319 319 320 320 320 324 324 321 320 320 322 324 327 328 330 337 343 347 345 345 342 342 339 337 337 336 340 343 344 341 339 339 338 335 336 336 337 340 341
315 316 318 318 316 317 318 318 318 319 319 319 319 319 320 322 322 321 320 319 321 325 326 328 329 330 335 344 346 347 346 342 337 337 336 336 338 338 341 340 338 338 336 339 337 335 342 343 344
316 316 316 316 316 316 317 317 317 318 318 319 319 319 319 319 319 320 319 319 322 323 324 325 327 329 329 333 347 345 349 348 345 340 337 337 337 339 340 341 338 339 340 341 339 342 343 344 347
314 315 316 316 317 317 317 317 317 317 317 317 318 318 318 319 318 319 319 320 320 321 322 322 325 327 330 331 328 332 337 347 351 348 344 335 342 341 341 339 340 339 342 342 341 347 347 344 347
315 315 315 315 316 317 317 317 318 317 317 316 317 317 318 318 318 318 319 319 319 319 320 322 323 326 322 330 329 328 334 339 340 345 351 348 342 344 341 342 342 342 343 342 347 348 349 350 347
314 315 315 316 317 317 316 316 316 317 317 316 316 317 318 320 319 319 318 318 318 318 319 321 324 326 326 326 329 330 329 328 330 336 344 343 342 345 342 338 334 345 346 346 347 351 352 351 350
314 314 315 315 315 316 316 316 316 317 316 316 317 317 317 317 319 319 318 318 317 317 318 321 323 324 326 327 328 330 332 332 333 332 336 336 344 348 348 335 340 340 350 349 353 352 354 352 351
314 315 317 317 317 318 317 316 316 316 316 316 317 315 315 316 318 319 318 318 318 317 319 320 321 323 324 325 326 327 329 330 333 334 332 332 335 338 350 354 353 353 353 355 354 354 355 355 352
316 317 317 321 321 320 317 316 316 315 315 314 314 314 316 317 318 318 318 319 318 318 318 319 321 323 325 325 326 326 327 327 328 329 331 331 332 333 335 353 353 355 355 356 355 355 355 354 352
315 318 317 318 319 318 318 319 317 316 315 314 314 315 318 317 317 317 317 317 319 319 319 320 321 321 321 324 327 328 328 328 329 330 332 333 334 334 331 342 352 353 354 356 356 355 354 352 352
316 316 319 318 318 318 317 317 317 317 316 314 316 317 317 317 317 317 316 317 317 318 318 319 320 320 320 320 323 326 328 329 329 330 333 334 336 338 342 342 344 351 352 355 356 354 353 351 349
316 316 317 318 324 324 321 318 317 316 316 316 316 316 316 317 317 318 318 317 316 316 317 318 319 320 320 320 320 322 325 328 330 331 332 334 336 340 341 343 345 348 351 355 356 353 349 350 351
317 320 321 325 322 320 318 318 316 316 316 316 316 316 317 317 318 318 318 317 317 317 316 316 316 318 319 319 319 319 321 324 327 331 333 335 337 338 340 341 343 346 350 353 354 351 347 351 351
Wind_Speed
13 10 9 10 7 8 16 19 4 1 5 5 8 4 8 13 12 5 6 7 8 18 24 31 30 28 26 26 27 26 25 23 22 20 18 17 16 16 16 15 14 12 11 10 9 9 8 7 7
9 10 11 7 9 13 12 16 7 9 10 3 5 8 11 12 12 9 11 10 7 18 23 26 31 30 27 26 28 28 27 24 23 21 19 18 17 16 16 15 14 12 10 9 9 7 7 6 6
8 7 9 8 13 15 13 7 1 4 5 7 4 2 5 6 13 10 15 7 4 16 22 26 34 32 29 27 28 29 28 26 24 22 20 19 18 17 17 15 14 12 10 9 7 7 6 5 5
8 7 5 10 18 16 12 6 8 5 5 5 4 6 6 10 10 14 16 12 8 18 22 27 36 33 30 29 29 30 28 27 25 23 22 20 19 18 17 16 14 12 11 9 8 7 7 6 5
13 7 11 14 19 20 5 9 12 6 7 5 8 12 3 6 12 15 13 9 15 20 23 26 37 34 32 30 29 30 29 28 26 24 23 21 20 18 17 15 13 11 10 9 9 9 8 8 7
10 10 15 17 20 19 3 12 14 16 12 9 6 14 5 5 15 16 13 7 16 22 24 23 38 36 34 31 30 30 30 29 26 25 24 22 21 18 16 15 13 12 11 10 10 9 9 8 8
16 14 19 23 21 17 9 12 10 15 15 10 3 4 4 10 15 13 10 4 10 21 23 20 29 33 35 32 30 29 30 29 27 25 24 23 21 19 17 15 14 12 11 11 10 10 10 10 10
14 15 26 23 19 22 11 12 7 11 15 6 2 8 5 11 14 12 9 3 11 21 23 19 25 27 26 26 31 30 29 28 27 26 24 23 21 20 18 17 16 14 13 13 12 12 11 12 12
19 18 21 27 25 19 15 13 14 9 12 10 10 8 5 7 13 12 9 3 9 20 23 21 24 26 26 25 25 31 30 28 27 25 25 23 16 16 15 15 15 15 15 14 13 13 13 14 15
20 17 28 25 22 22 21 22 14 11 13 17 18 14 9 6 12 12 8 6 8 16 21 22 23 25 25 25 24 25 22 21 20 19 17 19 17 15 15 15 18 17 17 16 15 15 15 16 14
22 25 23 22 25 26 23 22 15 17 14 14 21 20 14 13 12 9 14 5 3 12 17 20 21 23 25 25 24 23 23 22 22 22 21 18 17 16 14 14 14 14 16 15 15 15 15 15 15
25 26 22 23 27 24 23 20 22 20 20 12 7 16 12 13 13 13 12 6 1 12 22 18 20 20 23 24 25 22 25 24 23 23 23 19 20 18 16 15 15 14 14 13 16 13 14 13 15
22 23 22 22 22 24 22 22 25 26 20 17 12 15 20 12 12 15 11 4 1 4 8 23 16 18 18 20 22 23 24 25 24 22 24 22 20 20 17 16 16 13 11 13 12 13 12 13 15
17 19 21 23 21 19 24 23 23 26 21 21 11 19 22 22 6 11 11 6 1 2 4 6 19 20 25 23 19 19 17 23 22 22 21 26 22 19 18 16 16 15 14 12 12 11 13 14 14
17 20 18 20 21 21 18 25 29 24 24 24 19 19 20 20 18 8 4 6 2 3 4 9 17 23 23 20 28 16 21 19 21 22 22 23 27 21 20 17 17 15 16 13 11 11 15 15 17
14 18 20 21 22 22 20 27 25 26 25 30 16 19 18 20 21 16 8 5 1 2 4 5 11 16 24 26 24 24 23 23 22 21 22 25 24 26 21 20 19 19 18 16 16 16 19 20 15
17 16 20 21 22 16 21 27 22 16 11 11 17 11 17 15 15 14 11 8 2 2 3 4 4 9 19 24 23 23 22 26 22 25 22 22 26 24 27 23 20 19 19 19 18 20 18 21 12
16 18 17 17 10 14 20 24 18 16 13 14 14 15 16 13 14 16 13 4 4 2 3 4 3 5 19 11 10 18 27 23 25 23 23 22 23 26 26 26 24 22 20 22 23 26 16 17 10
19 15 19 16 9 7 12 17 19 18 18 17 17 17 16 14 12 12 10 4 3 4 4 2 5 4 2 19 14 18 20 25 17 31 27 23 24 26 28 27 24 27 23 28 28 25 18 17 12
16 19 19 17 14 10 16 19 19 20 17 19 18 19 18 16 14 13 10 10 6 4 5 6 4 3 3 4 10 15 11 16 24 29 26 30 27 25 27 28 24 26 25 28 25 21 20 14 12
18 18 17 17 12 12 14 22 22 21 24 22 22 20 17 16 11 12 11 10 8 6 2 4 2 1 10 4 8 12 15 23 13 25 34 25 21 27 25 27 26 26 29 28 32 23 22 18 15
17 17 16 16 12 14 15 13 14 5 10 12 15 12 10 13 13 11 10 11 8 4 3 2 5 4 9 2 10 9 13 14 22 20 13 18 30 28 29 28 22 28 30 30 27 25 25 22 20
14 15 12 11 16 17 20 13 14 20 19 13 12 13 11 7 8 12 11 8 7 3 2 1 2 5 7 7 13 10 14 18 17 19 16 24 26 31 34 40 33 31 37 35 30 24 27 21 17
13 18 14 16 14 17 21 19 17 14 14 14 13 10 10 7 10 7 6 9 8 7 5 3 4 5 7 10 9 10 13 16 16 17 14 19 22 26 26 24 32 44 41 40 28 25 25 25 20
14 12 13 16 15 16 18 11 12 4 2 12 18 12 7 9 7 9 7 7 7 6 7 5 4 5 5 8 10 12 14 15 16 18 20 21 22 23 22 28 33 37 38 34 29 26 25 22 22
13 15 11 12 13 13 4 8 9 9 13 6 3 7 5 7 9 3 6 6 8 10 6 7 5 5 7 8 10 10 14 15 18 20 21 23 22 24 26 26 34 34 33 32 27 24 24 21 24
20 18 16 19 21 18 14 21 8 12 8 7 11 10 10 6 5 8 9 7 8 9 10 9 9 10 9 10 12 11 12 14 18 20 20 21 24 26 29 18 23 29 31 28 26 24 24 22 24
20 5 10 11 18 19 17 20 14 19 17 13 10 9 11 4 9 12 12 12 11 11 12 14 15 13 14 14 13 14 15 15 17 19 21 23 24 25 22 23 26 26 26 27 28 26 23 24 23
15 18 14 13 7 6 13 8 9 10 12 15 6 4 6 11 13 13 13 14 15 15 15 16 16 16 16 15 15 16 17 18 18 19 21 23 24 25 24 24 23 25 26 28 28 25 25 25 23
14 14 17 5 13 15 15 17 8 4 8 6 6 7 14 11 10 12 13 14 15 15 17 18 20 19 18 19 18 19 19 20 21 20 21 23 25 24 24 24 26 27 26 28 29 28 25 25 24
Wind_Direction
328 307 292 261 241 234 247 239 256 35 237 244 325 235 258 323 351 27 109 30 120 152 164 168 168 171 178 181 181 180 179 177 177 174 171 167 164 164 163 162 162 162 163 162 158 153 149 149 148
309 307 256 275 252 248 231 245 148 212 62 7 247 238 253 261 37 19 359 24 128 156 166 172 171 175 180 186 184 182 182 182 182 180 176 173 172 171 169 169 169 168 165 164 161 158 152 151 145
295 283 281 239 237 251 266 23 53 163 80 270 251 291 357 4 38 352 321 9 186 168 173 178 175 178 181 189 189 186 185 186 185 185 183 180 179 178 176 174 175 170 168 166 166 162 158 162 158
267 219 239 258 256 244 278 7 307 38 188 239 306 261 157 85 359 338 315 282 236 185 180 187 180 179 183 190 191 190 190 191 191 189 189 186 186 184 181 179 181 176 174 173 173 179 172 171 182
246 263 259 244 255 261 214 287 271 246 262 244 224 256 186 79 359 342 325 276 219 191 182 189 186 182 185 189 195 194 194 196 196 194 194 192 193 191 188 185 184 187 184 182 186 190 189 184 194
246 239 252 246 233 254 219 261 260 243 260 252 238 242 250 84 6 346 346 304 206 191 182 180 190 186 186 191 195 198 199 200 201 200 200 197 197 197 196 194 193 196 195 198 202 202 205 205 206
249 250 242 255 262 235 195 255 238 265 249 236 245 257 228 47 347 343 3 325 213 188 184 175 186 189 190 192 197 200 203 203 205 205 203 202 202 202 203 203 205 207 210 211 216 223 221 222 225
241 250 255 255 253 256 220 208 244 276 253 266 185 241 235 30 337 331 16 340 210 189 185 177 185 189 191 195 200 203 205 207 207 207 206 206 206 208 209 211 216 215 219 221 219 229 234 239 240
230 244 246 244 247 256 249 200 203 242 257 264 251 285 6 344 331 336 353 82 222 192 187 183 187 189 191 193 202 206 210 212 213 212 212 210 205 216 218 220 227 232 230 233 232 237 240 242 247
226 235 243 253 256 252 254 252 187 189 229 245 269 235 214 305 327 332 326 9 207 208 195 189 189 190 191 194 198 200 205 210 211 212 214 208 208 216 219 227 230 235 238 237 241 241 245 249 249
218 241 254 252 252 264 265 252 242 218 203 238 233 251 332 314 305 309 324 54 299 234 206 201 189 188 195 198 195 197 200 204 208 209 211 213 211 217 221 221 223 232 241 234 244 242 244 246 251
240 242 252 261 268 267 262 272 263 242 225 213 246 267 246 302 307 312 304 345 257 263 201 214 191 195 201 202 200 197 199 200 204 208 207 212 212 215 222 221 224 219 227 229 237 239 235 249 258
237 252 251 259 258 269 272 251 255 259 252 230 244 261 247 254 313 306 291 312 207 276 299 200 207 204 207 231 209 205 199 203 205 205 207 209 215 218 216 225 227 230 228 229 239 245 249 248 254
261 250 263 259 252 253 257 258 260 258 266 255 232 252 253 235 254 307 304 296 243 240 258 241 196 210 210 217 244 211 208 206 207 207 210 208 214 218 219 223 227 232 233 235 241 246 249 245 249
257 267 261 258 257 244 252 253 248 255 260 252 230 239 246 245 222 246 296 318 296 266 266 244 207 200 208 215 224 222 211 213 209 214 210 205 212 220 216 223 228 231 232 232 237 239 249 244 242
258 249 255 245 235 241 240 254 247 245 243 241 251 251 242 250 223 229 210 215 279 342 333 249 213 184 207 209 218 221 222 215 225 216 219 213 214 214 217 224 227 228 223 214 218 212 237 234 244
234 252 246 246 246 233 225 246 252 245 241 253 249 253 263 239 221 212 212 195 145 83 31 346 304 171 211 213 214 223 235 226 218 225 219 222 218 217 217 220 225 230 223 221 215 228 225 243 222
252 235 229 254 205 207 252 256 253 252 217 232 237 237 246 238 222 194 203 163 137 127 29 3 37 223 205 194 217 230 234 228 216 224 225 225 227 225 223 224 225 210 223 232 213 230 232 236 234
279 291 284 293 244 255 263 271 261 234 205 225 238 242 241 228 257 211 200 240 201 174 139 61 329 353 143 217 198 227 232 229 234 222 213 224 226 230 225 231 221 222 218 223 218 221 226 230 231
272 264 259 261 256 249 260 263 261 257 249 244 244 234 231 237 225 245 226 234 229 251 138 112 277 313 129 242 221 223 238 240 231 227 221 220 218 231 233 232 229 223 218 227 216 216 231 234 228
256 258 261 262 261 238 265 266 258 252 250 247 245 242 239 220 203 234 229 221 236 229 242 163 209 6 287 227 259 248 236 255 240 233 228 228 231 234 238 237 238 242 227 225 225 212 223 233 226
256 253 241 274 272 260 246 274 248 306 215 236 233 228 225 219 209 204 214 212 214 216 250 322 2 340 293 267 269 265 270 249 231 244 222 224 223 245 228 233 240 248 247 236 223 213 217 217 222
267 285 295 258 258 269 258 260 260 254 217 192 219 207 197 181 212 200 192 197 226 224 212 149 262 277 265 247 249 258 258 260 262 248 238 236 227 211 214 228 244 266 251 242 227 214 209 213 222
293 275 251 258 255 252 251 248 261 243 215 183 195 194 198 215 180 200 202 199 218 206 204 195 209 224 242 244 257 262 264 275 282 288 286 262 244 230 234 229 225 238 234 237 224 215 208 205 212
233 256 268 249 229 244 241 234 242 18 151 195 191 190 215 226 204 234 240 250 247 235 234 223 219 278 261 247 245 244 249 255 258 264 265 261 266 254 230 215 220 226 228 231 225 216 213 202 213
215 248 240 262 278 291 111 232 245 245 176 210 282 255 257 228 235 262 282 277 280 273 261 277 277 268 287 277 275 263 261 260 263 252 249 256 257 259 265 213 209 220 223 223 221 215 214 208 212
256 218 258 278 269 279 267 258 190 169 189 210 231 217 209 212 259 273 277 287 291 294 288 283 284 291 294 293 291 276 265 262 264 273 276 263 261 264 266 258 226 222 225 222 213 209 213 207 211
262 216 245 251 253 250 255 266 265 189 190 196 203 206 225 253 288 277 278 279 277 273 270 267 270 283 293 293 286 282 286 280 273 267 263 260 261 262 262 247 234 232 228 222 211 208 205 202 211
241 231 222 238 211 264 276 260 344 159 186 180 192 240 251 255 288 288 289 283 275 272 274 278 270 270 276 284 288 284 280 280 279 271 269 267 262 258 256 253 242 229 227 219 212 207 199 201 207
269 213 258 232 256 259 264 259 175 167 251 194 207 244 251 287 287 284 286 282 281 276 274 278 277 272 275 277 280 284 284 282 280 281 277 276 266 263 256 249 243 231 223 216 208 206 202 198 202